OE6CUD-6 Weather Reports


time (UTC)temp
F
wind
direction
speed
knots
gust
knots
rain 1hr
in
rain 24hr
in
rain mn
in
humidity
%
barometer
mb
20260504231912 53 322 0.9 1.7 0.00 0.00 0.00 84 1010.5
20260504231649 53 313 0.9 1.7 0.00 0.00 0.00 84 1010.5
20260504230904 53 55 0.9 1.7 0.00 0.00 0.00 84 1010.4
20260504230402 53 355 0.0 1.7 0.00 0.00 0.00 83 1010.5
20260504230138 54 273 0.0 1.7 0.00 0.00 0.00 83 1010.6
20260504225617 54 273 0.0 1.7 0.00 0.00 0.00 83 1010.6
20260504224847 54 273 0.0 1.7 0.00 0.00 0.00 83 1010.6
20260504224341 54 277 0.0 1.7 0.00 0.00 0.00 83 1010.7
20260504223841 54 333 0.0 1.7 0.00 0.00 0.00 83 1010.6
20260504223335 54 338 0.9 1.7 0.00 0.00 0.00 82 1010.8
20260504222835 54 45 0.9 2.6 0.00 0.00 0.00 82 1010.8
20260504222333 54 45 0.9 2.6 0.00 0.00 0.00 82 1010.9
20260504221831 55 323 0.9 1.7 0.00 0.00 0.00 81 1011.1
20260504221333 54 215 0.9 1.7 0.00 0.00 0.00 82 1010.9
20260504220829 54 290 0.0 1.7 0.00 0.00 0.00 82 1010.9
20260504220329 55 290 0.9 0.9 0.00 0.00 0.00 81 1011.1
20260504215823 55 290 0.0 0.9 0.00 0.00 0.00 81 1011.2
20260504215600 55 313 0.0 0.9 0.00 0.00 0.00 80 1011.1
20260504214813 56 314 0.0 1.7 0.00 0.00 0.00 79 1011.2
20260504214307 56 314 0.0 1.7 0.00 0.00 0.00 78 1011.2
20260504214036 56 314 0.0 1.7 0.00 0.00 0.00 78 1011.2
20260504213258 57 309 0.0 0.9 0.00 0.00 0.00 77 1011.3
20260504212752 57 302 0.0 0.9 0.00 0.00 0.00 77 1011.3
20260504212249 57 304 0.0 1.7 0.00 0.00 0.00 77 1011.3
20260504211738 57 304 0.0 1.7 0.00 0.00 0.00 77 1011.3
20260504211231 58 242 0.0 1.7 0.00 0.00 0.00 76 1011.3
20260504210732 58 241 0.0 1.7 0.00 0.00 0.00 75 1011.3
20260504210507 58 247 0.9 3.5 0.00 0.00 0.00 74 1011.5
20260504205731 58 225 0.9 3.5 0.00 0.00 0.00 75 1011.4
20260504205230 58 38 0.0 1.7 0.00 0.00 0.00 75 1011.3
20260504204721 58 317 0.9 1.7 0.00 0.00 0.00 75 1011.4
20260504204215 58 309 0.9 0.9 0.00 0.00 0.00 74 1011.4
20260504203703 58 256 0.0 1.7 0.00 0.00 0.00 73 1011.4
20260504203203 59 256 0.0 1.7 0.00 0.00 0.00 72 1011.4
20260504202915 60 256 0.0 1.7 0.00 0.00 0.00 71 1011.5
20260504202134 60 256 0.0 1.7 0.00 0.00 0.00 71 1011.5
20260504201630 61 256 0.0 0.9 0.00 0.00 0.00 69 1011.6
20260504201131 61 256 0.0 0.9 0.00 0.00 0.00 68 1011.6
20260504200645 62 219 0.0 1.7 0.00 0.00 0.00 67 1011.6
20260504200120 62 217 0.0 1.7 0.00 0.00 0.00 66 1011.6
20260504195609 62 130 0.9 1.7 0.00 0.00 0.00 65 1011.7
20260504195109 63 74 0.0 1.7 0.00 0.00 0.00 63 1011.6
20260504194608 64 355 0.0 1.7 0.00 0.00 0.00 63 1011.7
20260504194353 64 347 0.0 1.7 0.00 0.00 0.00 61 1011.7
20260504193604 65 347 0.0 1.7 0.00 0.00 0.00 60 1011.8
20260504193103 66 284 0.9 2.6 0.00 0.00 0.00 60 1011.8
20260504192603 67 214 0.9 2.6 0.00 0.00 0.00 57 1011.8
20260504192105 67 224 0.9 3.5 0.00 0.00 0.00 56 1011.8
20260504191847 67 223 0.9 4.3 0.00 0.00 0.00 56 1011.8
20260504191107 68 181 1.7 4.3 0.00 0.00 0.00 56 1011.7
20260504190605 68 177 1.7 3.5 0.00 0.00 0.00 55 1011.6
20260504190110 68 176 1.7 7.0 0.00 0.00 0.00 56 1011.7
20260504185605 68 204 1.7 7.0 0.00 0.00 0.00 55 1011.6
20260504185052 69 173 1.7 4.3 0.00 0.00 0.00 55 1011.5
20260504184549 69 210 1.7 5.2 0.00 0.00 0.00 54 1011.5
20260504184047 69 164 1.7 5.2 0.00 0.00 0.00 53 1011.4
20260504183559 70 147 2.6 6.1 0.00 0.00 0.00 53 1011.4
20260504183552 70 217 1.7 5.2 0.00 0.00 0.00 53 1011.5
20260504182527 71 223 2.6 9.6 0.00 0.00 0.00 52 1011.4
20260504182025 71 179 2.6 10.4 0.00 0.00 0.00 52 1011.4
20260504181523 71 178 2.6 10.4 0.00 0.00 0.00 52 1011.3
20260504181022 71 165 2.6 7.8 0.00 0.00 0.00 52 1011.4
20260504180522 72 211 3.5 7.8 0.00 0.00 0.00 52 1011.3
20260504180022 72 243 2.6 7.8 0.00 0.00 0.00 51 1011.2
20260504175521 72 195 2.6 7.8 0.00 0.00 0.00 52 1011.3
20260504175021 72 182 2.6 7.8 0.00 0.00 0.00 52 1011.4
20260504174522 72 213 3.5 7.0 0.00 0.00 0.00 51 1011.3
20260504174020 73 211 2.6 7.0 0.00 0.00 0.00 51 1011.3
20260504173517 73 216 2.6 7.8 0.00 0.00 0.00 52 1011.2
20260504173306 73 175 2.6 7.8 0.00 0.00 0.00 51 1011.2
20260504172805 73 207 2.6 6.1 0.00 0.00 0.00 50 1011.3
20260504172014 74 163 2.6 8.7 0.00 0.00 0.00 50 1011.3
20260504171511 74 159 1.7 8.7 0.00 0.00 0.00 49 1011.3
20260504171010 74 196 2.6 7.0 0.00 0.00 0.00 49 1011.3
20260504170511 74 181 1.7 7.8 0.00 0.00 0.00 49 1011.3
20260504150908 81 206 2.6 7.8 0.00 0.00 0.00 43 1012.3
20260504150409 81 156 3.5 7.8 0.00 0.00 0.00 43 1012.4
20260504140907 82 146 2.6 7.8 0.00 0.00 0.00 43 1013.0
20260504140644 83 155 3.5 10.4 0.00 0.00 0.00 42 1013.2
20260504130330 80 121 5.2 13.0 0.00 0.00 0.00 46 1014.0
20260504130108 80 111 5.2 13.0 0.00 0.00 0.00 47 1014.1
20260504120304 80 150 2.6 6.1 0.00 0.00 0.00 44 1014.8
20260504110234 76 96 3.5 7.8 0.00 0.00 0.00 50 1015.3
20260504100233 73 105 3.5 10.4 0.00 0.00 0.00 54 1015.7
20260504081703 68 232 0.9 4.3 0.00 0.00 0.00 63 1016.0
20260504081452 69 77 1.7 4.3 0.00 0.00 0.00 63 1016.1
20260504080706 69 92 2.6 4.3 0.00 0.00 0.00 63 1016.0
20260504080202 67 101 1.7 3.5 0.00 0.00 0.00 66 1015.9
20260504070133 62 170 0.0 1.7 0.00 0.00 0.00 71 1015.5
20260504050350 49 53 0.0 1.7 0.00 0.00 0.00 98 1014.4
20260504045600 48 70 0.0 1.7 0.00 0.00 0.00 98 1014.4
20260504045104 48 57 0.0 1.7 0.00 0.00 0.00 97 1014.4
20260504044602 48 31 0.0 1.7 0.00 0.00 0.00 97 1014.4
20260504044134 48 323 0.0 1.7 0.00 0.00 0.00 96 1014.3
20260504044125 48 355 0.0 1.7 0.00 0.00 0.00 97 1014.4
20260504043100 48 323 0.0 0.9 0.00 0.00 0.00 96 1014.4
20260504042551 48 323 0.0 1.7 0.00 0.00 0.00 96 1014.3
20260504042053 47 323 0.0 1.7 0.00 0.00 0.00 95 1014.3
20260504041549 48 323 0.0 1.7 0.00 0.00 0.00 95 1014.3
20260504041051 48 323 0.0 1.7 0.00 0.00 0.00 95 1014.3
20260504040547 47 323 0.0 1.7 0.00 0.00 0.00 94 1014.3
20260504040042 48 323 0.0 1.7 0.00 0.00 0.00 93 1014.3
20260504035537 48 323 0.0 1.7 0.00 0.00 0.00 93 1014.2
20260504035035 48 323 0.0 1.7 0.00 0.00 0.00 93 1014.2
20260504034531 48 323 0.0 1.7 0.00 0.00 0.00 93 1014.3
20260504034312 48 323 0.0 0.0 0.00 0.00 0.00 92 1014.3
20260504033531 48 323 0.0 0.0 0.00 0.00 0.00 92 1014.3
20260504033029 48 323 0.0 0.0 0.00 0.00 0.00 92 1014.3
20260504032529 48 323 0.0 1.7 0.00 0.00 0.00 92 1014.3
20260504032250 49 323 0.0 1.7 0.00 0.00 0.00 92 1014.3
20260504031749 49 323 0.0 1.7 0.00 0.00 0.00 92 1014.2
20260504031005 49 323 0.0 1.7 0.00 0.00 0.00 91 1014.3
20260504030502 49 323 0.0 1.7 0.00 0.00 0.00 92 1014.4
20260504030447 49 323 0.0 1.7 0.00 0.00 0.00 92 1014.4
20260504025431 49 323 0.0 1.7 0.00 0.00 0.00 92 1014.4
20260504024931 49 323 0.0 0.9 0.00 0.00 0.00 92 1014.4
20260504024427 49 323 0.0 1.7 0.00 0.00 0.00 92 1014.4
20260504023926 49 323 0.0 1.7 0.00 0.00 0.00 91 1014.4
20260504023405 49 323 0.0 1.7 0.00 0.00 0.00 91 1014.4
20260504022858 49 323 0.0 1.7 0.00 0.00 0.00 90 1014.4
20260504022352 49 323 0.0 1.7 0.00 0.00 0.00 90 1014.4
20260504021833 50 323 0.0 1.7 0.00 0.00 0.00 90 1014.4
20260504021331 50 323 0.0 1.7 0.00 0.00 0.00 90 1014.4
20260504020815 50 323 0.0 1.7 0.00 0.00 0.00 90 1014.4
20260504020530 50 323 0.0 1.7 0.00 0.00 0.00 89 1014.5
20260504015800 50 323 0.0 1.7 0.00 0.00 0.00 89 1014.5
20260504015302 50 335 0.0 1.7 0.00 0.00 0.00 89 1014.5
20260504014803 50 335 0.0 0.9 0.00 0.00 0.00 89 1014.5
20260504014302 50 336 0.0 1.7 0.00 0.00 0.00 88 1014.4
20260504013801 51 336 0.0 1.7 0.00 0.00 0.00 88 1014.5
20260504013301 51 336 0.0 1.7 0.00 0.00 0.00 88 1014.5
20260504012756 51 341 0.0 1.7 0.00 0.00 0.00 88 1014.5
20260504012256 51 342 0.0 0.9 0.00 0.00 0.00 88 1014.5
20260504011744 51 342 0.0 0.9 0.00 0.00 0.00 87 1014.5
20260504011233 51 346 0.0 1.7 0.00 0.00 0.00 87 1014.5
20260504010730 51 346 0.0 1.7 0.00 0.00 0.00 86 1014.5
20260504010459 51 347 0.0 1.7 0.00 0.00 0.00 86 1014.6
20260504005724 51 347 0.0 0.9 0.00 0.00 0.00 86 1014.6
20260504005452 51 347 0.0 1.7 0.00 0.00 0.00 85 1014.6
20260504004941 51 347 0.0 1.7 0.00 0.00 0.00 85 1014.6
20260504004203 52 347 0.0 1.7 0.00 0.00 0.00 85 1014.6
20260504003938 52 347 0.0 1.7 0.00 0.00 0.00 84 1014.6
20260504003435 52 347 0.0 1.7 0.00 0.00 0.00 84 1014.6
20260504002703 52 348 0.0 1.7 0.00 0.00 0.00 83 1014.6
20260504002202 52 347 0.0 1.7 0.00 0.00 0.00 83 1014.6
20260504001702 52 331 0.0 1.7 0.00 0.00 0.00 83 1014.7
20260504001202 53 315 0.0 1.7 0.00 0.00 0.00 83 1014.8
20260504000700 53 315 0.0 1.7 0.00 0.00 0.00 82 1014.8
20260504000201 53 315 0.0 1.7 0.00 0.00 0.00 82 1014.8
20260503235700 53 315 0.0 1.7 0.00 0.00 0.00 82 1014.7
20260503235159 53 315 0.0 1.7 0.00 0.00 0.00 82 1014.7
20260503234638 53 315 0.0 1.7 0.00 0.00 0.00 82 1014.7
20260503234130 53 315 0.0 1.7 0.00 0.00 0.00 82 1014.7
20260503233631 53 315 0.0 1.7 0.00 0.00 0.00 82 1014.8
20260503233129 54 315 0.0 0.9 0.00 0.00 0.00 82 1014.8
20260503232910 54 323 0.0 1.7 0.00 0.00 0.00 81 1014.8